Voltar ao catálogo

STARLINK-37964

AtivoComunicaçõesVLEO
NORAD 69958·PAYLOAD·🇺🇸 United States

Lançado Jul 9, 2026 de Cape Canaveral Space Force Station

Loading…

Próximas Passagens (próximas 24 horas)

TLE

AtualizadoSource: CelesTrak SupGP

Época: Sep 15, 2026, 03:48 UTC

1 69958C 26157R   26258.15881944  .00068423  00000+0  20215-2 0  2583
2 69958  53.1586 359.0244 0001009  91.8613  78.1269 15.34358262    15

Acompanhe STARLINK-37964 em tempo real com AllMySat

Download on the App Store